Regional Weather Roundup
Issued by NWS

Home | Current Version | Previous Version | Text Only | Print | Product List | Glossary Off
Versions: 1 2 3 4 5 6 7 8 9 10 11 12 13 14 15 16 17 18 19 20 21 22 23 24 25 26 27 28 29 30 31 32 33 34 35 36 37 38 39 40 41 42 43 44 45 46 47 48 49 50

000
ASUS43 KLMK 210502
RWRKY
KENTUCKY REGIONAL WEATHER ROUNDUP
NATIONAL WEATHER SERVICE LOUISVILLE KY
100 AM EDT SUN SEP 21 2014

NOTE "FAIR" INDICATES FEW OR NO CLOUDS BELOW 12,000 FEET
WITH NO SIGNIFICANT WEATHER AND/OR OBSTRUCTIONS TO VISIBILITY.

KYZ001>023-026-027-061>063-070>075-210600-
WESTERN AND SOUTH CENTRAL KENTUCKY

CITY           SKY/WX    TMP DP  RH WIND       PRES   REMARKS
PADUCAH        CLEAR     75  68  78 SW7       29.97S
HENDERSON      CLEAR     70  63  78 SW6       29.95F
OWENSBORO      CLEAR     69  66  90 S5        29.96F
HOPKINSVILLE   CLEAR     71  71 100 SW5       30.01R
BOWLING GREEN  CLEAR     71  66  84 SW6       30.00F
GLASGOW        CLEAR     67  66  99 CALM      30.00S
$$

KYZ024-025-028>034-038-045-046-053-210600-
NORTH CENTRAL KENTUCKY

CITY           SKY/WX    TMP DP  RH WIND       PRES   REMARKS
LOUISVILLE/SDF MOCLDY    74  65  73 S6        29.95S
LOUISVILLE/LOU PTCLDY    72  66  81 S5        29.96S
FORT KNOX      CLEAR     68  65  89 S6        29.97R
$$

KYZ035>037-039>044-047>052-055>060-089>105-210600-
NORTHEAST KENTUCKY

CITY           SKY/WX    TMP DP  RH WIND       PRES   REMARKS
LEXINGTON      PTCLDY    71  64  78 S9        29.98F
COVINGTON      CLOUDY    71  64  78 S8        29.93F
FRANKFORT      PTCLDY    69  64  84 SW7       29.97S
$$

KYZ054-064>069-076>088-106>120-210600-
SOUTHEAST KENTUCKY

CITY           SKY/WX    TMP DP  RH WIND       PRES   REMARKS
JACKSON        CLEAR     66  62  87 CALM      30.01F
LONDON         CLEAR     64  61  90 CALM      30.02F FOG
SOMERSET       PTCLDY    64  64 100 CALM      30.03S
MIDDLESBORO    CLEAR     60  59  97 CALM      30.06F
MONTICELLO     CLEAR     62  61  97 CALM      30.03F FOG
$$



USA.gov is the U.S. government's official web portal to all federal, state and local government web resources and services.